Вернуться в каталог

OPS 4682 DEB

АктивенPO
NORAD 38401·DEBRIS·🇺🇸 United States

Запущен Apr 3, 1965 с Vandenberg Space Force Base

Loading…

Ближайшие Пролёты (ближайшие 24 часа)

TLE

СвежийSource: Space-Track

Эпоха: Sep 14, 2026, 07:08 UTC

1 38401U 65027DE  26257.29760063  .00000327  00000-0  11326-2 0  9998
2 38401  90.2504  10.5796 0030172 315.1033  44.7646 12.95344371673911

Отслеживайте OPS 4682 DEB в реальном времени с AllMySat

Download on the App Store